TimeCDT,TemperatureF,Dew PointF,Humidity,Sea Level PressureIn,VisibilityMPH,Wind Direction,Wind SpeedMPH,Gust SpeedMPH,PrecipitationIn,Events,Conditions,WindDirDegrees,DateUTC
12:55 AM,54.0,36.0,51,29.99,10.0,SSW,11.5,-,N/A,,Clear,200,2012-11-01 05:55:00
1:55 AM,52.0,37.0,57,29.99,10.0,SW,10.4,-,N/A,,Clear,220,2012-11-01 06:55:00
2:55 AM,52.0,37.0,57,29.98,10.0,WSW,5.8,-,N/A,,Clear,240,2012-11-01 07:55:00
3:55 AM,48.0,37.0,66,29.97,10.0,WSW,5.8,-,N/A,,Clear,240,2012-11-01 08:55:00
4:55 AM,46.0,37.0,71,29.98,8.0,West,9.2,-,N/A,,Clear,270,2012-11-01 09:55:00
5:55 AM,46.0,37.0,71,29.98,10.0,WSW,9.2,-,N/A,,Clear,250,2012-11-01 10:55:00
6:55 AM,46.9,37.0,68,29.99,10.0,West,10.4,-,N/A,,Clear,260,2012-11-01 11:55:00
7:55 AM,46.9,37.0,68,29.98,10.0,West,8.1,-,N/A,,Clear,260,2012-11-01 12:55:00
8:55 AM,46.9,37.9,71,30.01,8.0,West,9.2,-,N/A,,Clear,280,2012-11-01 13:55:00
9:55 AM,51.1,39.0,63,30.01,10.0,NW,10.4,-,N/A,,Clear,310,2012-11-01 14:55:00
10:55 AM,59.0,41.0,51,30.00,10.0,NNW,10.4,-,N/A,,Clear,330,2012-11-01 15:55:00
11:55 AM,61.0,42.1,50,29.99,10.0,North,10.4,-,N/A,,Clear,360,2012-11-01 16:55:00
12:55 PM,64.9,42.1,43,29.98,10.0,North,8.1,-,N/A,,Clear,10,2012-11-01 17:55:00
1:55 PM,66.0,43.0,43,29.96,10.0,North,5.8,16.1,N/A,,Clear,10,2012-11-01 18:55:00
2:55 PM,68.0,42.1,39,29.94,10.0,NNE,8.1,-,N/A,,Clear,20,2012-11-01 19:55:00
3:55 PM,68.0,42.1,39,29.93,10.0,ENE,4.6,-,N/A,,Clear,60,2012-11-01 20:55:00
4:55 PM,68.0,42.1,39,29.92,10.0,ENE,3.5,-,N/A,,Clear,70,2012-11-01 21:55:00
5:55 PM,64.0,43.0,46,29.92,10.0,Calm,Calm,-,N/A,,Clear,0,2012-11-01 22:55:00
6:55 PM,57.9,42.1,56,29.93,10.0,Calm,Calm,-,N/A,,Clear,0,2012-11-01 23:55:00
7:55 PM,55.9,41.0,57,29.94,10.0,ENE,5.8,-,N/A,,Clear,70,2012-11-02 00:55:00
8:55 PM,53.1,39.9,61,29.93,10.0,East,6.9,-,N/A,,Clear,100,2012-11-02 01:55:00
9:55 PM,52.0,39.9,63,29.92,10.0,East,6.9,-,N/A,,Clear,100,2012-11-02 02:55:00
10:55 PM,48.9,39.0,69,29.93,10.0,East,5.8,-,N/A,,Clear,90,2012-11-02 03:55:00
11:55 PM,48.0,39.0,71,29.93,10.0,East,5.8,-,N/A,,Clear,90,2012-11-02 04:55:00